Volver al catálogo

ICEYE-X81

ActivoCienciaSSO
NORAD 69889·PAYLOAD·🇺🇸 United States

Lanzado Jul 7, 2026 desde Vandenberg Space Force Base

Loading…

Próximos Pases (próximas 24 horas)

TLE

ActualizadoSource: Space-Track

Época: Sep 14, 2026, 13:50 UTC

1 69889U 26156W   26257.57689259  .00001775  00000-0  18233-3 0  9993
2 69889  97.7470 156.8554 0003891 280.4951  79.5829 14.91609053 10324

Sigue ICEYE-X81 en tiempo real con AllMySat

Download on the App Store